Hourly Weather Honiatycze

Today, 22 April, Thursday

Time Temperature Precipitation Wind Pressure Humidity
00:00 +7°C° 0 mm 3 mps 741 mmHg 88%
01:00 +7°C° 0 mm 3 mps 741 mmHg 88%
02:00 +7°C° 0 mm 3 mps 741 mmHg 89%
03:00 +6°C° 0 mm 4 mps 741 mmHg 89%
04:00 +6°C° 0 mm 4 mps 741 mmHg 89%
05:00 +6°C° 0 mm 4 mps 741 mmHg 90%
06:00 +6°C° 0 mm 4 mps 741 mmHg 87%
07:00 +7°C° 0 mm 5 mps 742 mmHg 85%
08:00 +8°C° 0 mm 5 mps 742 mmHg 82%
09:00 +9°C° 0.3 mm 5 mps 742 mmHg 79%
10:00 +10°C° 0.3 mm 5 mps 742 mmHg 76%
11:00 +10°C° 0.3 mm 5 mps 742 mmHg 73%
12:00 +9°C° 0.4 mm 6 mps 742 mmHg 77%
13:00 +7°C° 0.4 mm 6 mps 743 mmHg 80%
14:00 +5°C° 0.4 mm 6 mps 743 mmHg 83%
15:00 +5°C° 0 mm 6 mps 743 mmHg 80%
16:00 +6°C° 0 mm 5 mps 743 mmHg 76%
17:00 +6°C° 0 mm 4 mps 744 mmHg 72%
18:00 +5°C° 0 mm 4 mps 744 mmHg 73%
19:00 +4°C° 0 mm 3 mps 744 mmHg 74%
20:00 +5°C° 0 mm 2 mps 744 mmHg 74%
21:00 +4°C° 0 mm 2 mps 744 mmHg 75%
22:00 +4°C° 0 mm 2 mps 745 mmHg 76%
23:00 +3°C° 0 mm 2 mps 745 mmHg 77%

Tomorrow, 23 April, Friday

Time Temperature Precipitation Wind Pressure Humidity
00:00 +3°C° 0 mm 2 mps 745 mmHg 78%
01:00 +1°C° 0 mm 3 mps 745 mmHg 79%
02:00 +1°C° 0 mm 3 mps 745 mmHg 80%
03:00 0°C° 0 mm 3 mps 745 mmHg 82%
04:00 0°C° 0 mm 3 mps 745 mmHg 84%
05:00 -1°C° 0 mm 3 mps 745 mmHg 87%
06:00 0°C° 0 mm 4 mps 746 mmHg 82%
07:00 +1°C° 0 mm 4 mps 746 mmHg 78%
08:00 +3°C° 0 mm 5 mps 746 mmHg 74%
09:00 +5°C° 0.1 mm 5 mps 746 mmHg 66%
10:00 +5°C° 0.1 mm 6 mps 746 mmHg 57%
11:00 +7°C° 0.1 mm 6 mps 746 mmHg 48%
12:00 +7°C° 0.1 mm 6 mps 746 mmHg 48%
13:00 +7°C° 0.1 mm 6 mps 746 mmHg 49%
14:00 +6°C° 0.1 mm 7 mps 746 mmHg 49%
15:00 +7°C° 0.2 mm 6 mps 746 mmHg 52%
16:00 +7°C° 0.2 mm 6 mps 746 mmHg 54%
17:00 +7°C° 0.2 mm 5 mps 746 mmHg 57%
18:00 +6°C° 0.2 mm 5 mps 746 mmHg 65%
19:00 +4°C° 0.2 mm 4 mps 746 mmHg 73%
20:00 +3°C° 0.2 mm 3 mps 747 mmHg 82%
21:00 +2°C° 0.2 mm 3 mps 747 mmHg 86%
22:00 +1°C° 0.2 mm 4 mps 747 mmHg 90%
23:00 0°C° 0.2 mm 4 mps 747 mmHg 94%

Day after tomorrow, 24 April, Saturday

Time Temperature Precipitation Wind Pressure Humidity
00:00 0°C° 0.2 mm 4 mps 747 mmHg 93%
01:00 0°C° 0.2 mm 4 mps 747 mmHg 92%
02:00 +1°C° 0.2 mm 3 mps 747 mmHg 91%
03:00 -1°C° 0 mm 4 mps 748 mmHg 92%
04:00 -2°C° 0 mm 4 mps 748 mmHg 93%
05:00 -2°C° 0 mm 4 mps 748 mmHg 94%
06:00 -1°C° 0 mm 4 mps 748 mmHg 87%
07:00 0°C° 0 mm 4 mps 749 mmHg 80%
08:00 +1°C° 0 mm 4 mps 749 mmHg 73%
09:00 +3°C° 0.1 mm 5 mps 749 mmHg 64%
10:00 +5°C° 0.1 mm 5 mps 749 mmHg 55%
11:00 +5°C° 0.1 mm 6 mps 749 mmHg 46%
12:00 +7°C° 0 mm 6 mps 748 mmHg 45%
13:00 +7°C° 0 mm 6 mps 748 mmHg 43%
14:00 +7°C° 0 mm 6 mps 748 mmHg 42%
15:00 +8°C° 0 mm 5 mps 748 mmHg 43%
16:00 +8°C° 0 mm 5 mps 748 mmHg 44%
17:00 +8°C° 0 mm 4 mps 747 mmHg 44%
18:00 +6°C° 0 mm 4 mps 747 mmHg 50%
19:00 +5°C° 0 mm 3 mps 747 mmHg 56%
20:00 +5°C° 0 mm 2 mps 747 mmHg 62%
21:00 +5°C° 0 mm 2 mps 747 mmHg 68%
22:00 +4°C° 0 mm 2 mps 747 mmHg 73%
23:00 +4°C° 0 mm 2 mps 747 mmHg 79%

25 April, Sunday

Time Temperature Precipitation Wind Pressure Humidity
00:00 +3°C° 0.1 mm 2 mps 747 mmHg 83%
01:00 +2°C° 0.1 mm 3 mps 747 mmHg 88%
02:00 +1°C° 0.1 mm 3 mps 746 mmHg 92%
03:00 +1°C° 0 mm 3 mps 746 mmHg 93%
04:00 0°C° 0 mm 3 mps 746 mmHg 94%
05:00 0°C° 0 mm 3 mps 746 mmHg 95%
06:00 0°C° 0.2 mm 3 mps 747 mmHg 87%
07:00 +1°C° 0.2 mm 3 mps 747 mmHg 80%
08:00 +2°C° 0.2 mm 3 mps 747 mmHg 73%
09:00 +3°C° 0 mm 3 mps 747 mmHg 64%
10:00 +4°C° 0 mm 3 mps 747 mmHg 55%
11:00 +5°C° 0 mm 3 mps 747 mmHg 46%
12:00 +5°C° 0 mm 3 mps 747 mmHg 46%
13:00 +7°C° 0 mm 3 mps 747 mmHg 46%
14:00 +6°C° 0 mm 4 mps 747 mmHg 45%
15:00 +6°C° 0.2 mm 4 mps 746 mmHg 50%
16:00 +6°C° 0.2 mm 5 mps 746 mmHg 54%
17:00 +5°C° 0.2 mm 5 mps 746 mmHg 59%
18:00 +4°C° 0.2 mm 4 mps 746 mmHg 64%
19:00 +3°C° 0.2 mm 3 mps 746 mmHg 68%
20:00 +2°C° 0.2 mm 3 mps 746 mmHg 73%
21:00 +1°C° 0 mm 3 mps 746 mmHg 76%
22:00 +1°C° 0 mm 3 mps 746 mmHg 79%
23:00 0°C° 0 mm 3 mps 746 mmHg 81%

26 April, Monday

Time Temperature Precipitation Wind Pressure Humidity
00:00 -1°C° 0 mm 3 mps 746 mmHg 83%
01:00 -1°C° 0 mm 3 mps 746 mmHg 84%
02:00 -1°C° 0 mm 3 mps 746 mmHg 86%
03:00 -2°C° 0 mm 3 mps 746 mmHg 87%
04:00 -2°C° 0 mm 2 mps 746 mmHg 88%
05:00 -2°C° 0 mm 2 mps 746 mmHg 88%
06:00 -1°C° 0 mm 2 mps 746 mmHg 81%
07:00 +1°C° 0 mm 3 mps 746 mmHg 73%
08:00 +2°C° 0 mm 3 mps 746 mmHg 66%
09:00 +3°C° 0 mm 3 mps 746 mmHg 58%
10:00 +5°C° 0 mm 3 mps 746 mmHg 50%
11:00 +6°C° 0 mm 4 mps 746 mmHg 41%
12:00 +6°C° 0 mm 4 mps 745 mmHg 40%
13:00 +7°C° 0 mm 4 mps 745 mmHg 38%
14:00 +8°C° 0 mm 5 mps 744 mmHg 36%
15:00 +7°C° 0 mm 5 mps 744 mmHg 41%
16:00 +7°C° 0 mm 5 mps 744 mmHg 46%
17:00 +7°C° 0 mm 5 mps 744 mmHg 51%
18:00 +6°C° 0 mm 4 mps 744 mmHg 57%
19:00 +4°C° 0 mm 3 mps 744 mmHg 63%
20:00 +4°C° 0 mm 2 mps 744 mmHg 69%
21:00 +3°C° 0 mm 2 mps 744 mmHg 71%
22:00 +3°C° 0 mm 2 mps 744 mmHg 72%
23:00 +2°C° 0 mm 2 mps 744 mmHg 74%

27 April, Tuesday

Time Temperature Precipitation Wind Pressure Humidity
00:00 +2°C° 0 mm 2 mps 744 mmHg 75%
01:00 +2°C° 0 mm 2 mps 744 mmHg 76%
02:00 +2°C° 0 mm 2 mps 744 mmHg 78%
03:00 +1°C° 0 mm 2 mps 743 mmHg 79%
04:00 +1°C° 0 mm 2 mps 743 mmHg 80%
05:00 +2°C° 0 mm 1 mps 743 mmHg 81%
06:00 +4°C° 0 mm 1 mps 743 mmHg 75%
07:00 +5°C° 0 mm 1 mps 743 mmHg 69%
08:00 +7°C° 0 mm 1 mps 743 mmHg 63%
09:00 +9°C° 0 mm 1 mps 743 mmHg 59%
10:00 +10°C° 0 mm 1 mps 743 mmHg 55%
11:00 +10°C° 0 mm 2 mps 743 mmHg 50%
12:00 +12°C° 0 mm 2 mps 742 mmHg 48%
13:00 +13°C° 0 mm 2 mps 742 mmHg 45%
14:00 +14°C° 0 mm 2 mps 741 mmHg 42%
15:00 +14°C° 0 mm 2 mps 741 mmHg 43%
16:00 +14°C° 0 mm 2 mps 740 mmHg 44%
17:00 +13°C° 0 mm 3 mps 740 mmHg 45%
18:00 +11°C° 0 mm 3 mps 740 mmHg 52%
19:00 +9°C° 0 mm 3 mps 740 mmHg 59%
20:00 +8°C° 0 mm 3 mps 739 mmHg 66%
21:00 +7°C° 0 mm 3 mps 739 mmHg 67%
22:00 +7°C° 0 mm 3 mps 739 mmHg 69%
23:00 +5°C° 0 mm 3 mps 739 mmHg 70%
Show more

We Need Your Consent

Meteoprog and our Service Providers may store and access personal data such as cookies, device identifiers or other similar technologies on your device and process such data to personalise content and ads, as well as provide social media features and to analyse the traffic.

  • Store and/or access information on your device

    Cookies, device identifiers or other information can be stored or accessed on your device for the purposes indicated above.

  • Personalised ads and content, ad and content measurement, audience insights, and products development

    Ads and content can be personalised based on a profile. More data can be added to better personalise ads and content. Ad and content performance can be measured. Insights about the audience who saw the ads and content can be derived. Such data can be used to develop or improve user’s experience, systems and software.

By clicking ‘I Agree’ you will allow the use of indicated cookies, device identifiers, web beacons or other similar technologies. Your settings can be changed in the browser on your device.

For certain purposes, legitimate interests may be relied on, rather than consent. You can read more about this in our Privacy and Cookie Policy.